This is the latest recevied weather packets stored in our database for station/object K8RLH. If no packets are shown the sender has not sent any weather packets the latest 10 day(s).
| Time | Temp. | Humidity | Pressure | Rain* | Wind** | Luminosity | Snow |
|---|---|---|---|---|---|---|---|
| 1777568481 | 21.11° C | 66% | 1012.9 hPa | 0 mm | - | 194 W/m² | - |
| 1777568177 | 20.56° C | 66% | 1012.9 hPa | 0 mm | - | 217 W/m² | - |
| 1777567875 | 20.56° C | 68% | 1013.1 hPa | 0 mm | - | 192 W/m² | - |
| 1777567570 | 20.56° C | 67% | 1013.2 hPa | 0 mm | - | 225 W/m² | - |
| 1777567268 | 20.56° C | 71% | 1013.3 hPa | 0 mm | - | 223 W/m² | - |
| 1777566967 | 20.56° C | 74% | 1013.2 hPa | 0 mm | - | 227 W/m² | - |
| 1777566664 | 20.56° C | 69% | 1013.3 hPa | 0 mm | - | 211 W/m² | - |
| 1777566361 | 20° C | 73% | 1013.4 hPa | 0 mm | - | 211 W/m² | - |
| 1777566059 | 19.44° C | 78% | 1013.3 hPa | 0 mm | - | 224 W/m² | - |
| 1777565753 | 19.44° C | 78% | 1013.3 hPa | 0 mm | - | 209 W/m² | - |
| 1777565450 | 19.44° C | 79% | 1013.4 hPa | 0 mm | - | 179 W/m² | - |
| 1777565146 | 19.44° C | 77% | 1013.4 hPa | 0 mm | - | 167 W/m² | - |
| 1777564843 | 19.44° C | 77% | 1013.3 hPa | 0 mm | - | 146 W/m² | - |
| 1777564538 | 19.44° C | 78% | 1013.5 hPa | 0 mm | - | 174 W/m² | - |
| 1777564234 | 20° C | 76% | 1013.4 hPa | 0 mm | - | 174 W/m² | - |
| 1777563930 | 19.44° C | 78% | 1013.7 hPa | 0 mm | - | 192 W/m² | - |
| 1777563626 | 19.44° C | 82% | 1013.6 hPa | 0 mm | - | 202 W/m² | - |
| 1777563326 | 18.89° C | 82% | 1013.5 hPa | 0 mm | - | 230 W/m² | - |
| 1777563023 | 18.89° C | 82% | 1013.4 hPa | 0 mm | - | 209 W/m² | - |
| 1777562719 | 18.89° C | 84% | 1013.5 hPa | 0 mm | - | 234 W/m² | - |
| 1777562417 | 18.89° C | 84% | 1013.5 hPa | 0 mm | - | 199 W/m² | - |
| 1777562114 | 18.33° C | 84% | 1013.6 hPa | 0 mm | - | 171 W/m² | - |
| 1777561812 | 18.33° C | 85% | 1013.5 hPa | 0 mm | - | 172 W/m² | - |
| 1777561509 | 18.33° C | 85% | 1013.6 hPa | 0 mm | - | 166 W/m² | - |
| 1777561203 | 18.33° C | 85% | 1013.4 hPa | 0 mm | - | 168 W/m² | - |
* Rain latest hour (hover to see other rain measurements)
** Current wind speed in m/s (hover to see current wind gust speed)